TimeCST,TemperatureF,Dew PointF,Humidity,Sea Level PressureIn,VisibilityMPH,Wind Direction,Wind SpeedMPH,Gust SpeedMPH,PrecipitationIn,Events,Conditions,WindDirDegrees,DateUTC
12:15 AM,50.0,44.6,82,30.06,10.0,SE,6.9,-,N/A,,Clear,130,2012-12-06 06:15:00
12:35 AM,48.6,43.9,84,30.06,10.0,ESE,4.6,-,N/A,,Clear,120,2012-12-06 06:35:00
12:55 AM,48.0,43.9,86,30.06,10.0,East,3.5,-,N/A,,Clear,100,2012-12-06 06:55:00
1:15 AM,47.5,43.9,87,30.05,10.0,East,3.5,-,N/A,,Clear,100,2012-12-06 07:15:00
2:35 AM,45.7,43.7,93,30.03,10.0,SE,3.5,-,N/A,,Clear,130,2012-12-06 08:35:00
2:55 AM,45.5,43.7,93,30.02,10.0,ESE,4.6,-,N/A,,Clear,110,2012-12-06 08:55:00
3:15 AM,46.0,44.4,94,30.02,10.0,ESE,6.9,-,N/A,,Mostly Cloudy,120,2012-12-06 09:15:00
3:35 AM,47.3,45.3,93,30.02,10.0,ESE,6.9,-,N/A,,Overcast,120,2012-12-06 09:35:00
3:55 AM,48.2,45.9,92,30.01,10.0,ESE,4.6,-,N/A,,Overcast,110,2012-12-06 09:55:00
4:15 AM,48.2,45.9,92,30.01,10.0,ESE,6.9,-,N/A,,Overcast,110,2012-12-06 10:15:00
4:35 AM,48.2,46.4,93,29.99,7.0,ESE,6.9,-,N/A,,Overcast,110,2012-12-06 10:35:00
4:55 AM,48.6,46.9,94,29.99,7.0,ESE,6.9,-,N/A,,Overcast,110,2012-12-06 10:55:00
5:15 AM,48.6,47.3,95,29.98,5.0,ESE,6.9,-,N/A,,Overcast,120,2012-12-06 11:15:00
5:35 AM,48.6,47.3,95,29.98,4.0,ESE,4.6,-,N/A,,Overcast,120,2012-12-06 11:35:00
5:55 AM,48.2,47.3,97,29.98,1.5,ESE,8.1,-,N/A,,Overcast,120,2012-12-06 11:55:00
6:15 AM,48.2,47.3,97,29.99,1.0,ESE,4.6,-,N/A,,Overcast,110,2012-12-06 12:15:00
6:35 AM,48.6,47.7,97,29.99,1.2,ESE,4.6,-,N/A,,Overcast,120,2012-12-06 12:35:00
6:55 AM,49.1,48.2,97,30.00,1.0,SE,4.6,-,N/A,,Overcast,140,2012-12-06 12:55:00
7:15 AM,49.5,48.7,97,30.00,0.5,SE,5.8,-,N/A,Fog,Fog,140,2012-12-06 13:15:00
7:35 AM,50.0,49.1,97,30.00,0.5,SSE,6.9,-,N/A,Fog,Fog,160,2012-12-06 13:35:00
7:55 AM,50.0,49.3,97,29.99,0.5,SSE,9.2,-,N/A,Fog,Fog,150,2012-12-06 13:55:00
8:15 AM,50.0,49.3,97,30.00,0.8,SE,8.1,-,N/A,Rain,Rain,140,2012-12-06 14:15:00
8:35 AM,50.0,49.3,97,30.00,1.2,SSE,6.9,-,N/A,,Drizzle,150,2012-12-06 14:35:00
8:55 AM,50.4,49.6,97,30.00,1.8,SE,5.8,-,N/A,,Overcast,140,2012-12-06 14:55:00
9:15 AM,50.9,50.0,97,29.99,2.5,SE,6.9,-,N/A,,Overcast,130,2012-12-06 15:15:00
9:35 AM,50.9,50.0,97,29.99,3.0,SE,9.2,-,N/A,,Overcast,130,2012-12-06 15:35:00
9:55 AM,51.3,50.2,96,30.00,4.0,SE,8.1,-,N/A,,Overcast,130,2012-12-06 15:55:00
10:15 AM,51.8,50.7,96,29.99,4.0,SE,6.9,-,N/A,,Overcast,130,2012-12-06 16:15:00
10:35 AM,52.5,51.1,95,29.99,4.0,SE,5.8,-,N/A,,Overcast,130,2012-12-06 16:35:00
10:55 AM,53.2,51.3,93,29.98,5.0,SE,9.2,-,N/A,,Overcast,130,2012-12-06 16:55:00
11:15 AM,54.5,51.8,91,29.97,7.0,SE,6.9,-,N/A,,Overcast,130,2012-12-06 17:15:00
11:35 AM,55.9,51.8,86,29.96,7.0,SE,6.9,-,N/A,,Overcast,140,2012-12-06 17:35:00
11:55 AM,56.7,51.4,83,29.94,10.0,SE,8.1,-,N/A,,Overcast,130,2012-12-06 17:55:00
12:15 PM,57.9,51.3,78,29.94,10.0,SE,9.2,-,N/A,,Overcast,130,2012-12-06 18:15:00
12:35 PM,59.0,51.1,75,29.92,10.0,SSE,8.1,-,N/A,,Overcast,160,2012-12-06 18:35:00
12:55 PM,60.4,50.9,71,29.91,10.0,SSE,8.1,-,N/A,,Overcast,160,2012-12-06 18:55:00
1:15 PM,60.8,50.5,69,29.90,10.0,SSE,9.2,16.1,N/A,,Mostly Cloudy,150,2012-12-06 19:15:00
1:35 PM,63.9,49.5,59,29.88,10.0,SSE,10.4,17.3,N/A,,Mostly Cloudy,150,2012-12-06 19:35:00
1:55 PM,64.0,48.6,57,29.88,10.0,SSE,11.5,17.3,N/A,,Mostly Cloudy,160,2012-12-06 19:55:00
2:15 PM,64.4,49.1,58,29.87,10.0,South,11.5,18.4,N/A,,Scattered Clouds,170,2012-12-06 20:15:00
2:35 PM,64.6,48.7,56,29.86,10.0,SSE,12.7,17.3,N/A,,Clear,160,2012-12-06 20:35:00
2:55 PM,64.6,48.4,56,29.85,10.0,SSE,9.2,17.3,N/A,,Clear,160,2012-12-06 20:55:00
3:15 PM,64.2,48.2,56,29.84,10.0,SSE,13.8,20.7,N/A,,Clear,150,2012-12-06 21:15:00
3:35 PM,64.2,48.4,56,29.84,10.0,SSE,10.4,18.4,N/A,,Clear,160,2012-12-06 21:35:00
3:55 PM,64.2,48.2,56,29.84,10.0,SSE,9.2,18.4,N/A,,Clear,160,2012-12-06 21:55:00
4:15 PM,63.7,48.2,57,29.84,10.0,SSE,8.1,19.6,N/A,,Clear,150,2012-12-06 22:15:00
4:35 PM,63.3,48.4,58,29.83,10.0,SSE,10.4,23.0,N/A,,Clear,150,2012-12-06 22:35:00
4:55 PM,62.2,48.7,61,29.83,10.0,SE,5.8,18.4,N/A,,Clear,140,2012-12-06 22:55:00
5:15 PM,60.4,49.1,66,29.83,10.0,ESE,6.9,-,N/A,,Clear,120,2012-12-06 23:15:00
5:35 PM,59.2,49.1,69,29.84,10.0,ESE,11.5,17.3,N/A,,Clear,120,2012-12-06 23:35:00
5:55 PM,57.9,48.7,71,29.84,10.0,ESE,8.1,-,N/A,,Clear,120,2012-12-06 23:55:00
6:15 PM,57.2,48.4,72,29.85,10.0,ESE,10.4,-,N/A,,Clear,120,2012-12-07 00:15:00
6:35 PM,55.8,48.6,77,29.85,10.0,ESE,11.5,-,N/A,,Clear,110,2012-12-07 00:35:00
6:55 PM,55.4,49.1,79,29.86,10.0,ESE,9.2,-,N/A,,Clear,110,2012-12-07 00:55:00
7:15 PM,54.5,49.1,82,29.87,10.0,ESE,9.2,-,N/A,,Clear,110,2012-12-07 01:15:00
7:35 PM,53.6,48.9,84,29.88,10.0,ESE,8.1,-,N/A,,Clear,110,2012-12-07 01:35:00
7:55 PM,53.1,48.6,85,29.89,10.0,ESE,8.1,-,N/A,,Clear,110,2012-12-07 01:55:00
8:15 PM,52.5,48.6,86,29.90,10.0,ESE,5.8,-,N/A,,Clear,110,2012-12-07 02:15:00
8:35 PM,52.0,48.4,88,29.90,10.0,ESE,6.9,-,N/A,,Scattered Clouds,110,2012-12-07 02:35:00
8:55 PM,52.7,48.7,86,29.90,10.0,ESE,8.1,-,N/A,,Overcast,110,2012-12-07 02:55:00
9:15 PM,52.7,49.1,88,29.90,10.0,ESE,9.2,-,N/A,,Overcast,110,2012-12-07 03:15:00
9:35 PM,52.2,48.6,88,29.89,10.0,ESE,8.1,-,N/A,,Mostly Cloudy,120,2012-12-07 03:35:00
9:55 PM,51.8,48.7,89,29.88,7.0,SE,13.8,17.3,N/A,,Scattered Clouds,130,2012-12-07 03:55:00
10:15 PM,51.8,48.6,89,29.88,7.0,ESE,10.4,-,N/A,,Clear,120,2012-12-07 04:15:00
10:35 PM,51.3,48.6,90,29.89,7.0,ESE,8.1,-,N/A,,Clear,120,2012-12-07 04:35:00
10:55 PM,50.9,48.4,91,29.89,7.0,ESE,8.1,-,N/A,,Clear,120,2012-12-07 04:55:00
11:15 PM,50.7,48.4,92,29.88,7.0,ESE,6.9,-,N/A,,Clear,110,2012-12-07 05:15:00
11:35 PM,50.9,48.6,92,29.88,7.0,ESE,5.8,-,N/A,,Clear,110,2012-12-07 05:35:00
11:55 PM,50.4,48.4,93,29.88,7.0,ESE,6.9,-,N/A,,Clear,120,2012-12-07 05:55:00